STARLINK AN (44271 NORAD) Tracking and Keplerian Element Data

This shows tracking and keplerian element data for the satellite.

Feedback or suggestion? Click here.




ElementValue
Catalog44271
NameSTARLINK AN
Epoch Orbit386
Epoch Day173.89029156
Epoch Year2019
RAAN37.8954
Inclination53.0005
Eccentricity0.0001706
Argument of Perigee91.7128
Mean Anonmoly268.4055
Mean Motion15.05611479
Decay Rate1.756E-05
L11 44271U 19029AN 19173.89029156 .00001756 00000-0 13954-3 0 9994
L22 44271 53.0005 37.8954 0001706 91.7128 268.4055 15.05611479 3867

Live tracking and technical data element details for STARLINK AN (NORAD 44271). STARLINK AN can be tracked NOW for your location showing map with azimuth and elevation plus other details from your city location.

Track the satellite on the map from your city or location and see movement details for azimuth, elevation, latitude, longitude, range, height, and movement on the map or in text.







IsCatalogInMostPopularTable: catalog: 44271, numindb: 21
Update: records affected: 1



GetName: 44271 STARLINK AN

Hit Count: updated at: Sun, 21 Jul 2019 21:20:52 GMT